MSR9905 KBFI-BIKF

Flight info

Callsign MSR9905
Flight time N/A
Altitude 39000
Route ALPSE DCT YXC DCT 5130N11000W 55N100W/N0474F410 58N090W DCT RONPU DCT BEPEG DCT MUSVA/M080F410 DCT 64N060W 65N050W 65N040W 64N030W DCT GISTU DCT GIRUG GIRUG3H
Aircraft B38M/M-SDE1FGHILORVWXY/HB1

Departure

Time 2026-05-09 02:48
Airport King County International Airport - Boeing Field (KBFI)

Arrival

Time N/A
Airport Keflavik International Airport (BIKF)
Time Latitude Longitude Altitude Speed Heading
2026-05-09 01:58 47.53667 -122.31267 28 ft 0 kts 271°
2026-05-09 02:37 47.53667 -122.31266 24 ft 1 kts 271°
2026-05-09 02:38 47.53667 -122.31245 28 ft 2 kts 271°
2026-05-09 02:38 47.53666 -122.31223 29 ft 2 kts 281°
2026-05-09 02:38 47.53660 -122.31203 28 ft 2 kts 321°
2026-05-09 02:38 47.53650 -122.31193 30 ft 0 kts 328°
2026-05-09 02:40 47.53651 -122.31193 30 ft 0 kts 328°
2026-05-09 02:43 47.53654 -122.31196 27 ft 1 kts 329°
2026-05-09 02:44 47.53662 -122.31203 28 ft 3 kts 329°
2026-05-09 02:44 47.53697 -122.31234 27 ft 7 kts 329°
2026-05-09 02:44 47.53733 -122.31265 26 ft 9 kts 331°
2026-05-09 02:44 47.53794 -122.31314 24 ft 10 kts 330°
2026-05-09 02:45 47.53852 -122.31363 27 ft 11 kts 330°
2026-05-09 02:45 47.53923 -122.31380 25 ft 12 kts 29°
2026-05-09 02:45 47.53970 -122.31284 27 ft 9 kts 61°
2026-05-09 02:45 47.53994 -122.31216 26 ft 8 kts 62°
2026-05-09 02:46 47.54015 -122.31154 28 ft 6 kts 64°
2026-05-09 02:46 47.54010 -122.31098 29 ft 6 kts 141°
2026-05-09 02:46 47.53989 -122.31080 28 ft 0 kts 150°
2026-05-09 02:47 47.53978 -122.31071 28 ft 6 kts 150°
2026-05-09 02:47 47.53861 -122.30971 29 ft 45 kts 150°
2026-05-09 02:47 47.53369 -122.30558 26 ft 115 kts 150°
2026-05-09 02:48 47.52518 -122.29850 115 ft 157 kts 153°
2026-05-09 02:48 47.51565 -122.29066 721 ft 160 kts 154°
2026-05-09 02:48 47.50539 -122.28310 1309 ft 172 kts 158°
2026-05-09 02:48 47.49460 -122.27395 1973 ft 188 kts 150°
2026-05-09 02:49 47.48323 -122.26267 2707 ft 204 kts 149°
2026-05-09 02:49 47.47120 -122.25097 3635 ft 209 kts 149°
2026-05-09 02:49 47.45847 -122.23867 4330 ft 231 kts 148°
2026-05-09 02:49 47.44422 -122.22540 5073 ft 246 kts 150°
2026-05-09 02:50 47.42985 -122.21207 6129 ft 252 kts 150°
2026-05-09 02:50 47.41568 -122.19566 7017 ft 268 kts 136°
2026-05-09 02:50 47.40394 -122.17304 7741 ft 288 kts 120°
2026-05-09 02:50 47.39600 -122.14527 8652 ft 297 kts 104°
2026-05-09 02:51 47.39280 -122.11492 9676 ft 304 kts 90°
2026-05-09 02:51 47.39445 -122.08339 10488 ft 314 kts 76°
2026-05-09 02:51 47.40182 -122.05228 11036 ft 330 kts 59°
2026-05-09 02:51 47.41314 -122.02180 11553 ft 348 kts 55°
2026-05-09 02:52 47.42563 -121.99083 12157 ft 363 kts 55°
2026-05-09 02:52 47.43926 -121.95924 12957 ft 366 kts 45°
2026-05-09 02:52 47.45810 -121.93495 13910 ft 358 kts 25°
2026-05-09 02:52 47.48086 -121.92070 14633 ft 355 kts
2026-05-09 02:53 47.50510 -121.91709 15464 ft 348 kts 351°
2026-05-09 02:53 47.52882 -121.92310 16295 ft 348 kts 344°
2026-05-09 02:53 47.55290 -121.92956 17042 ft 354 kts 345°
2026-05-09 02:53 47.57727 -121.93584 17892 ft 357 kts 345°
2026-05-09 02:54 47.60162 -121.94198 18635 ft 362 kts 345°
2026-05-09 02:54 47.62660 -121.94819 19320 ft 366 kts 345°
2026-05-09 02:54 47.65181 -121.95444 19992 ft 370 kts 345°
2026-05-09 02:54 47.67737 -121.96078 20661 ft 374 kts 345°
2026-05-09 02:55 47.70307 -121.96715 21310 ft 378 kts 345°
2026-05-09 02:55 47.72913 -121.97362 21973 ft 382 kts 345°
2026-05-09 02:55 47.75550 -121.98017 22632 ft 386 kts 345°
2026-05-09 02:55 47.78179 -121.98672 23247 ft 390 kts 345°
2026-05-09 02:56 47.80867 -121.99341 23864 ft 394 kts 345°
2026-05-09 02:56 47.83581 -122.00017 24398 ft 397 kts 345°
2026-05-09 02:56 47.86307 -122.00697 25058 ft 396 kts 345°
2026-05-09 02:56 47.89031 -122.01379 25637 ft 398 kts 345°
2026-05-09 02:57 47.91777 -122.02067 26076 ft 403 kts 345°
2026-05-09 02:57 47.94537 -122.02758 26615 ft 405 kts 345°
2026-05-09 02:57 47.97322 -122.03457 27122 ft 407 kts 345°
2026-05-09 02:57 48.00127 -122.04162 27627 ft 410 kts 345°
2026-05-09 02:58 48.02915 -122.04862 28107 ft 413 kts 345°
2026-05-09 02:58 48.05758 -122.05579 28577 ft 416 kts 345°
2026-05-09 02:58 48.08625 -122.06259 29043 ft 420 kts 349°
2026-05-09 02:58 48.11584 -122.06100 29537 ft 434 kts
2026-05-09 02:59 48.14484 -122.04695 30058 ft 447 kts 20°
2026-05-09 02:59 48.17116 -122.02094 30516 ft 461 kts 35°
2026-05-09 02:59 48.19254 -121.98453 30907 ft 477 kts 51°
2026-05-09 02:59 48.20685 -121.93900 31333 ft 490 kts 66°
2026-05-09 03:00 48.21828 -121.89094 31695 ft 490 kts 63°
2026-05-09 03:00 48.23058 -121.84388 32068 ft 491 kts 63°
2026-05-09 03:00 48.24296 -121.79615 32554 ft 491 kts 64°
2026-05-09 03:00 48.25531 -121.74839 33023 ft 492 kts 65°
2026-05-09 03:01 48.26741 -121.70028 33499 ft 492 kts 65°
2026-05-09 03:01 48.27959 -121.65259 33978 ft 491 kts 65°
2026-05-09 03:01 48.29190 -121.60480 34421 ft 491 kts 65°
2026-05-09 03:01 48.30423 -121.55709 34779 ft 490 kts 65°
2026-05-09 03:02 48.31655 -121.50936 35193 ft 489 kts 66°
2026-05-09 03:02 48.32869 -121.46224 35558 ft 490 kts 66°
2026-05-09 03:02 48.34097 -121.41448 35911 ft 490 kts 66°
2026-05-09 03:02 48.35322 -121.36673 36249 ft 491 kts 66°
2026-05-09 03:03 48.36551 -121.31873 36571 ft 492 kts 66°
2026-05-09 03:03 48.37773 -121.27093 36866 ft 492 kts 66°
2026-05-09 03:03 48.38998 -121.22285 37174 ft 492 kts 67°
2026-05-09 03:03 48.40221 -121.17476 37472 ft 492 kts 67°
2026-05-09 03:04 48.41431 -121.12716 37758 ft 493 kts 67°
2026-05-09 03:04 48.42651 -121.07896 38049 ft 493 kts 67°
2026-05-09 03:04 48.43873 -121.03063 38358 ft 494 kts 68°
2026-05-09 03:04 48.45092 -120.98233 38629 ft 494 kts 68°
2026-05-09 03:05 48.46304 -120.93414 38879 ft 494 kts 68°
2026-05-09 03:05 48.47520 -120.88572 39091 ft 495 kts 68°
2026-05-09 03:05 48.48738 -120.83714 39172 ft 495 kts 68°
2026-05-09 03:06 48.51170 -120.73998 39125 ft 496 kts 68°
2026-05-09 03:06 48.53576 -120.64310 39100 ft 497 kts 68°
2026-05-09 03:07 48.55987 -120.54572 39110 ft 497 kts 68°
2026-05-09 03:07 48.58396 -120.44800 39085 ft 496 kts 68°
2026-05-09 03:08 48.60773 -120.35121 39090 ft 493 kts 68°
2026-05-09 03:08 48.64524 -120.19853 39065 ft 493 kts 68°
2026-05-09 03:09 48.73325 -119.80678 39019 ft 492 kts 67°
2026-05-09 03:09 48.79087 -119.59153 38986 ft 493 kts 69°
2026-05-09 03:10 48.83633 -119.39744 38950 ft 493 kts 69°
2026-05-09 03:10 48.88223 -119.20129 38963 ft 492 kts 69°
2026-05-09 03:11 48.92745 -119.00530 38963 ft 492 kts 69°
2026-05-09 03:11 48.97253 -118.80922 38962 ft 492 kts 70°
2026-05-09 03:12 49.01714 -118.61225 38956 ft 492 kts 70°
2026-05-09 03:12 49.06115 -118.41673 38972 ft 492 kts 69°
2026-05-09 03:13 49.12704 -118.12047 38962 ft 492 kts 70°
2026-05-09 03:13 49.17068 -117.92287 38967 ft 491 kts 70°
2026-05-09 03:14 49.21333 -117.72664 38960 ft 491 kts 71°
2026-05-09 03:14 49.25598 -117.52822 39024 ft 491 kts 70°
2026-05-09 03:15 49.29851 -117.32962 38998 ft 492 kts 70°
2026-05-09 03:15 49.34042 -117.13146 38981 ft 492 kts 71°
2026-05-09 03:16 49.36935 -116.99355 38978 ft 492 kts 71°
2026-05-09 03:16 49.39015 -116.89359 38971 ft 492 kts 71°
2026-05-09 03:17 49.41094 -116.79341 38996 ft 492 kts 71°
2026-05-09 03:17 49.43145 -116.69402 38992 ft 491 kts 71°
2026-05-09 03:18 49.45199 -116.59416 38994 ft 491 kts 71°
2026-05-09 03:18 49.47248 -116.49405 38988 ft 491 kts 71°
2026-05-09 03:19 49.49289 -116.39389 39011 ft 491 kts 71°
2026-05-09 03:19 49.51306 -116.29442 38998 ft 489 kts 71°
2026-05-09 03:20 49.53323 -116.19447 39010 ft 491 kts 71°
2026-05-09 03:20 49.55377 -116.09438 39004 ft 489 kts 66°
2026-05-09 03:21 49.58544 -116.00255 39011 ft 487 kts 59°
2026-05-09 03:21 49.61755 -115.91196 39016 ft 485 kts 59°
2026-05-09 03:22 49.65007 -115.82074 39017 ft 485 kts 59°
2026-05-09 03:22 49.68251 -115.72946 39018 ft 485 kts 59°
2026-05-09 03:23 49.71487 -115.63812 39019 ft 485 kts 59°
2026-05-09 03:23 49.74684 -115.54757 38996 ft 482 kts 59°
2026-05-09 03:24 49.77889 -115.45647 39032 ft 483 kts 59°
2026-05-09 03:24 49.81087 -115.36522 39035 ft 482 kts 59°
2026-05-09 03:25 49.84278 -115.27387 39039 ft 482 kts 59°
2026-05-09 03:25 49.87423 -115.18350 39038 ft 478 kts 59°
2026-05-09 03:26 49.90565 -115.09287 39056 ft 477 kts 59°
2026-05-09 03:26 49.93705 -115.00202 39035 ft 477 kts 59°
2026-05-09 03:27 49.96836 -114.91110 39027 ft 477 kts 60°
2026-05-09 03:27 49.99926 -114.82104 39032 ft 475 kts 60°
2026-05-09 03:28 50.03023 -114.73045 39017 ft 474 kts 60°
2026-05-09 03:28 50.06113 -114.63980 39008 ft 475 kts 60°
2026-05-09 03:29 50.09172 -114.54963 39017 ft 475 kts 60°
2026-05-09 03:29 50.12246 -114.45875 38995 ft 474 kts 60°
2026-05-09 03:30 50.15313 -114.36775 38992 ft 474 kts 60°
2026-05-09 03:30 50.18371 -114.27669 38997 ft 474 kts 60°
2026-05-09 03:31 50.21410 -114.18588 38959 ft 472 kts 60°
2026-05-09 03:31 50.24423 -114.09551 38968 ft 473 kts 60°
2026-05-09 03:32 50.27460 -114.00408 38951 ft 474 kts 60°
2026-05-09 03:32 50.30491 -113.91253 38946 ft 474 kts 60°
2026-05-09 03:33 50.33487 -113.82168 38941 ft 474 kts 60°
2026-05-09 03:33 50.36503 -113.72988 38936 ft 474 kts 60°
2026-05-09 03:34 50.39509 -113.63809 38927 ft 473 kts 60°
2026-05-09 03:34 50.42501 -113.54637 38929 ft 473 kts 60°
2026-05-09 03:35 50.45460 -113.45532 38931 ft 473 kts 60°
2026-05-09 03:35 50.48438 -113.36335 38931 ft 473 kts 60°
2026-05-09 03:36 50.51408 -113.27128 38932 ft 473 kts 60°
2026-05-09 03:36 50.54371 -113.17912 38925 ft 473 kts 60°
2026-05-09 03:37 50.57301 -113.08763 38913 ft 472 kts 60°
2026-05-09 03:37 50.60247 -112.99527 38914 ft 472 kts 60°
2026-05-09 03:38 50.63190 -112.90270 38907 ft 472 kts 60°
2026-05-09 03:38 50.66110 -112.81049 38907 ft 471 kts 60°
2026-05-09 03:39 50.69009 -112.71861 38898 ft 471 kts 60°
2026-05-09 03:39 50.71919 -112.62601 38898 ft 471 kts 60°
2026-05-09 03:40 50.74826 -112.53320 38908 ft 471 kts 60°
2026-05-09 03:40 50.77726 -112.44022 38904 ft 474 kts 60°
2026-05-09 03:41 50.80609 -112.34746 38907 ft 474 kts 60°
2026-05-09 03:41 50.83506 -112.25390 38906 ft 473 kts 60°
2026-05-09 03:42 50.86394 -112.16024 38905 ft 473 kts 60°
2026-05-09 03:42 50.89273 -112.06655 38920 ft 476 kts 60°
2026-05-09 03:43 50.92141 -111.97285 38924 ft 476 kts 60°
2026-05-09 03:43 50.95020 -111.87842 38927 ft 476 kts 60°
2026-05-09 03:44 50.97892 -111.78382 38928 ft 476 kts 60°
2026-05-09 03:44 51.00750 -111.68935 38931 ft 476 kts 60°
2026-05-09 03:45 51.03591 -111.59509 38934 ft 476 kts 60°
2026-05-09 03:45 51.06440 -111.50015 38932 ft 476 kts 60°
2026-05-09 03:46 51.09282 -111.40511 38928 ft 476 kts 60°
2026-05-09 03:46 51.11635 -111.32613 38954 ft 476 kts 59°
2026-05-09 03:47 51.14918 -111.21546 38931 ft 475 kts 59°
2026-05-09 03:47 51.17735 -111.12013 38928 ft 476 kts 60°
2026-05-09 03:48 51.20072 -111.04075 38929 ft 476 kts 60°
2026-05-09 03:48 51.22868 -110.94543 38927 ft 476 kts 60°
2026-05-09 03:49 51.26120 -110.83407 38930 ft 477 kts 59°
2026-05-09 03:49 51.28460 -110.75362 38928 ft 477 kts 59°
2026-05-09 03:50 51.31223 -110.65828 38929 ft 477 kts 59°
2026-05-09 03:50 51.34005 -110.56198 38934 ft 477 kts 60°
2026-05-09 03:51 51.36780 -110.46557 38963 ft 477 kts 59°
2026-05-09 03:51 51.39553 -110.36887 38943 ft 478 kts 59°
2026-05-09 03:52 51.42313 -110.27225 38931 ft 478 kts 59°
2026-05-09 03:52 51.45054 -110.17590 38926 ft 478 kts 59°
2026-05-09 03:53 51.47804 -110.07887 38962 ft 478 kts 59°
2026-05-09 03:53 51.50712 -109.98334 38923 ft 469 kts 49°
2026-05-09 03:54 51.54370 -109.89699 38918 ft 469 kts 49°
2026-05-09 03:54 51.58000 -109.81072 38940 ft 469 kts 49°
2026-05-09 03:55 51.61653 -109.72381 38941 ft 469 kts 49°
2026-05-09 03:55 51.65299 -109.63680 38968 ft 470 kts 48°
2026-05-09 03:56 51.68940 -109.54959 38940 ft 470 kts 48°
2026-05-09 03:56 51.72559 -109.46264 38939 ft 470 kts 48°
2026-05-09 03:57 51.76198 -109.37489 38939 ft 470 kts 49°
2026-05-09 03:57 51.79831 -109.28699 38946 ft 471 kts 49°
2026-05-09 03:58 51.83448 -109.19917 38952 ft 470 kts 49°
2026-05-09 03:58 51.87044 -109.11158 38960 ft 470 kts 49°
2026-05-09 03:59 51.90654 -109.02334 38969 ft 471 kts 49°
2026-05-09 03:59 51.94258 -108.93496 38968 ft 471 kts 49°
2026-05-09 04:00 51.97856 -108.84641 38999 ft 470 kts 48°
2026-05-09 04:00 52.01416 -108.75848 38979 ft 469 kts 48°
2026-05-09 04:01 52.04992 -108.66985 38979 ft 469 kts 49°
2026-05-09 04:01 52.08555 -108.58124 38986 ft 469 kts 49°
2026-05-09 04:02 52.12122 -108.49224 38985 ft 469 kts 49°
2026-05-09 04:02 52.15678 -108.40320 38984 ft 468 kts 48°
2026-05-09 04:03 52.19191 -108.31493 38991 ft 468 kts 49°
2026-05-09 04:03 52.22722 -108.22589 38991 ft 468 kts 49°
2026-05-09 04:04 52.26253 -108.13653 38990 ft 468 kts 49°
2026-05-09 04:04 52.29775 -108.04710 39036 ft 468 kts 49°
2026-05-09 04:05 52.33254 -107.95844 38992 ft 466 kts 49°
2026-05-09 04:05 52.36741 -107.86929 38996 ft 467 kts 49°
2026-05-09 04:06 52.40231 -107.77971 39020 ft 466 kts 49°
2026-05-09 04:06 52.43709 -107.69016 39010 ft 466 kts 49°
2026-05-09 04:07 52.47158 -107.60104 39009 ft 465 kts 49°
2026-05-09 04:07 52.50606 -107.51161 39007 ft 465 kts 49°
2026-05-09 04:08 52.54064 -107.42163 39006 ft 466 kts 49°
2026-05-09 04:08 52.57512 -107.33158 39014 ft 466 kts 49°
2026-05-09 04:09 52.60953 -107.24138 39053 ft 466 kts 49°
2026-05-09 04:09 52.64352 -107.15198 39007 ft 463 kts 49°
2026-05-09 04:10 52.67761 -107.06198 39011 ft 464 kts 49°
2026-05-09 04:10 52.71171 -106.97167 39008 ft 464 kts 49°
2026-05-09 04:11 52.74549 -106.88186 39011 ft 464 kts 49°
2026-05-09 04:11 52.77937 -106.79145 39046 ft 464 kts 50°
2026-05-09 04:12 52.81320 -106.70085 39009 ft 463 kts 50°
2026-05-09 04:12 52.84696 -106.61013 39010 ft 463 kts 50°
2026-05-09 04:13 52.88064 -106.51929 39012 ft 463 kts 50°
2026-05-09 04:13 52.91423 -106.42836 39010 ft 463 kts 50°
2026-05-09 04:14 52.94760 -106.33774 39010 ft 464 kts 50°
2026-05-09 04:14 52.98117 -106.24619 39017 ft 465 kts 50°
2026-05-09 04:15 53.01464 -106.15462 39007 ft 465 kts 50°
2026-05-09 04:15 53.04809 -106.06273 39011 ft 465 kts 51°
2026-05-09 04:16 53.08127 -105.97127 39013 ft 465 kts 51°
2026-05-09 04:16 53.11457 -105.87913 38991 ft 464 kts 51°
2026-05-09 04:17 53.14772 -105.78708 38982 ft 465 kts 51°
2026-05-09 04:17 53.18090 -105.69461 38980 ft 465 kts 51°
2026-05-09 04:18 53.21379 -105.60260 38980 ft 465 kts 51°
2026-05-09 04:18 53.24681 -105.50987 39022 ft 465 kts 52°
2026-05-09 04:19 53.27977 -105.41698 38991 ft 466 kts 52°
2026-05-09 04:19 53.31272 -105.32376 38991 ft 466 kts 52°
2026-05-09 04:20 53.34539 -105.23100 38996 ft 466 kts 52°
2026-05-09 04:20 53.37823 -105.13740 38996 ft 466 kts 52°
2026-05-09 04:21 53.41096 -105.04376 38998 ft 466 kts 52°
2026-05-09 04:22 53.45999 -104.90283 38996 ft 466 kts 52°
2026-05-09 04:22 53.49236 -104.80934 38992 ft 467 kts 52°
2026-05-09 04:23 53.52485 -104.71514 38992 ft 467 kts 52°
2026-05-09 04:23 53.55731 -104.62067 39025 ft 467 kts 53°
2026-05-09 04:24 53.58971 -104.52599 38993 ft 467 kts 53°
2026-05-09 04:24 53.62184 -104.43177 38985 ft 467 kts 53°
2026-05-09 04:25 53.65404 -104.33698 38986 ft 467 kts 53°
2026-05-09 04:25 53.68620 -104.24194 38980 ft 467 kts 53°
2026-05-09 04:26 53.71832 -104.14663 39008 ft 467 kts 54°
2026-05-09 04:26 53.75013 -104.05190 38982 ft 467 kts 54°
2026-05-09 04:27 53.78204 -103.95649 38978 ft 467 kts 54°
2026-05-09 04:27 53.81397 -103.86066 38973 ft 467 kts 54°
2026-05-09 04:28 53.84582 -103.76467 38972 ft 468 kts 54°
2026-05-09 04:28 53.87736 -103.66926 38992 ft 467 kts 54°
2026-05-09 04:29 53.90898 -103.57322 38977 ft 467 kts 54°
2026-05-09 04:29 53.94061 -103.47678 38974 ft 468 kts 54°
2026-05-09 04:30 53.97215 -103.38023 38979 ft 468 kts 54°
2026-05-09 04:30 54.00341 -103.28415 38973 ft 468 kts 54°
2026-05-09 04:31 54.03474 -103.18749 38988 ft 467 kts 55°
2026-05-09 04:31 54.06593 -103.09086 38972 ft 465 kts 55°
2026-05-09 04:32 54.09682 -102.99480 38974 ft 466 kts 55°
2026-05-09 04:32 54.12782 -102.89798 38969 ft 465 kts 55°
2026-05-09 04:33 54.15870 -102.80118 38966 ft 466 kts 55°
2026-05-09 04:33 54.18955 -102.70404 38965 ft 465 kts 55°
2026-05-09 04:34 54.22028 -102.60694 38964 ft 465 kts 55°
2026-05-09 04:34 54.25077 -102.51019 38963 ft 465 kts 56°
2026-05-09 04:35 54.28129 -102.41296 38958 ft 465 kts 56°
2026-05-09 04:35 54.31182 -102.31529 38989 ft 465 kts 56°
2026-05-09 04:36 54.34234 -102.21725 38956 ft 466 kts 56°
2026-05-09 04:36 54.37251 -102.11995 38956 ft 466 kts 56°
2026-05-09 04:37 54.40289 -102.02155 38960 ft 466 kts 56°
2026-05-09 04:37 54.43318 -101.92308 38964 ft 466 kts 56°
2026-05-09 04:38 54.46335 -101.82457 38979 ft 466 kts 57°
2026-05-09 04:38 54.49345 -101.72587 38958 ft 467 kts 57°
2026-05-09 04:39 54.52334 -101.62746 38952 ft 467 kts 57°
2026-05-09 04:39 54.55334 -101.52829 38952 ft 467 kts 57°
2026-05-09 04:40 54.58330 -101.42882 38944 ft 467 kts 57°
2026-05-09 04:40 54.61290 -101.33011 38964 ft 468 kts 58°
2026-05-09 04:41 54.64274 -101.23024 38944 ft 468 kts 58°
2026-05-09 04:41 54.67250 -101.13016 38942 ft 469 kts 58°
2026-05-09 04:42 54.70223 -101.02985 38929 ft 469 kts 58°
2026-05-09 04:42 54.73180 -100.92970 38931 ft 469 kts 58°
2026-05-09 04:43 54.76117 -100.82987 38946 ft 468 kts 58°
2026-05-09 04:43 54.79061 -100.72937 38928 ft 468 kts 58°
2026-05-09 04:44 54.81995 -100.62880 38927 ft 467 kts 59°
2026-05-09 04:44 54.84915 -100.52828 38926 ft 467 kts 59°
2026-05-09 04:45 54.87832 -100.42748 38917 ft 467 kts 59°
2026-05-09 04:45 54.90726 -100.32708 38920 ft 468 kts 59°
2026-05-09 04:46 54.93630 -100.22588 38914 ft 468 kts 59°
2026-05-09 04:46 54.96521 -100.12474 38910 ft 468 kts 59°
2026-05-09 04:47 54.99408 -100.02330 38903 ft 468 kts 59°
2026-05-09 04:47 55.02700 -99.92729 38915 ft 464 kts 53°
2026-05-09 04:48 55.06145 -99.83221 38910 ft 464 kts 53°
2026-05-09 04:48 55.09606 -99.73708 38907 ft 465 kts 53°
2026-05-09 04:49 55.13065 -99.64172 38897 ft 465 kts 53°
2026-05-09 04:49 55.16518 -99.54616 38897 ft 464 kts 54°
2026-05-09 04:50 55.19931 -99.45133 38890 ft 464 kts 54°
2026-05-09 04:50 55.23353 -99.35588 38894 ft 464 kts 54°
2026-05-09 04:51 55.26780 -99.25992 38878 ft 464 kts 54°
2026-05-09 04:51 55.30201 -99.16375 38876 ft 465 kts 54°
2026-05-09 04:52 55.33586 -99.06822 38873 ft 465 kts 54°
2026-05-09 04:52 55.36989 -98.97179 38874 ft 465 kts 54°
2026-05-09 04:53 55.40388 -98.87509 38889 ft 465 kts 54°
2026-05-09 04:53 55.43788 -98.77799 38875 ft 466 kts 55°
2026-05-09 04:54 55.47154 -98.68148 38859 ft 466 kts 55°
2026-05-09 04:54 55.50537 -98.58408 38859 ft 465 kts 55°
2026-05-09 04:55 55.53911 -98.48658 38855 ft 465 kts 55°
2026-05-09 04:55 55.57275 -98.38894 38864 ft 465 kts 55°
2026-05-09 04:56 55.60609 -98.29181 38849 ft 466 kts 55°
2026-05-09 04:56 55.63965 -98.19362 38829 ft 466 kts 56°
2026-05-09 04:57 55.67316 -98.09520 38823 ft 466 kts 56°
2026-05-09 04:57 55.70656 -97.99669 38809 ft 466 kts 56°
2026-05-09 04:58 55.73964 -97.89873 38804 ft 466 kts 56°
2026-05-09 04:58 55.77291 -97.79981 38813 ft 467 kts 56°
2026-05-09 04:59 55.80616 -97.70056 38800 ft 467 kts 56°
2026-05-09 04:59 55.83932 -97.60114 38810 ft 467 kts 56°
2026-05-09 05:00 55.87213 -97.50237 38815 ft 467 kts 56°
2026-05-09 05:00 55.90512 -97.40265 38836 ft 467 kts 56°
2026-05-09 05:01 55.93808 -97.30263 38838 ft 468 kts 56°
2026-05-09 05:01 55.97096 -97.20242 38828 ft 468 kts 56°
2026-05-09 05:02 56.00348 -97.10287 38825 ft 468 kts 56°
2026-05-09 05:02 56.03620 -97.00232 38818 ft 468 kts 56°
2026-05-09 05:03 56.06886 -96.90153 38818 ft 468 kts 56°
2026-05-09 05:03 56.10144 -96.80053 38830 ft 469 kts 57°
2026-05-09 05:04 56.13392 -96.69944 38820 ft 469 kts 57°
2026-05-09 05:04 56.16612 -96.59881 38803 ft 468 kts 57°
2026-05-09 05:05 56.19842 -96.49741 38807 ft 468 kts 57°
2026-05-09 05:05 56.23059 -96.39601 38797 ft 468 kts 57°
2026-05-09 05:06 56.26273 -96.29426 38812 ft 468 kts 57°
2026-05-09 05:06 56.29460 -96.19292 38788 ft 468 kts 57°
2026-05-09 05:07 56.32662 -96.09069 38783 ft 468 kts 57°
2026-05-09 05:07 56.35848 -95.98852 38783 ft 469 kts 57°
2026-05-09 05:08 56.39035 -95.88588 38778 ft 469 kts 58°
2026-05-09 05:08 56.42213 -95.78308 38779 ft 469 kts 58°
2026-05-09 05:09 56.45359 -95.68090 38781 ft 468 kts 58°
2026-05-09 05:09 56.48508 -95.57813 38772 ft 468 kts 58°
2026-05-09 05:10 56.51655 -95.47502 38774 ft 468 kts 58°
2026-05-09 05:10 56.54793 -95.37172 38771 ft 468 kts 58°
2026-05-09 05:11 56.57898 -95.26909 38764 ft 468 kts 58°
2026-05-09 05:11 56.61014 -95.16563 38763 ft 468 kts 58°
2026-05-09 05:12 56.64124 -95.06191 38753 ft 468 kts 58°
2026-05-09 05:12 56.67227 -94.95795 38752 ft 468 kts 58°
2026-05-09 05:13 56.70323 -94.85378 38741 ft 468 kts 59°
2026-05-09 05:13 56.73381 -94.75041 38740 ft 468 kts 59°
2026-05-09 05:14 56.76459 -94.64592 38757 ft 467 kts 59°
2026-05-09 05:14 56.79515 -94.54170 38735 ft 466 kts 59°
2026-05-09 05:15 56.82562 -94.43734 38723 ft 466 kts 59°
2026-05-09 05:15 56.85575 -94.33366 38721 ft 466 kts 59°
2026-05-09 05:16 56.88606 -94.22893 38722 ft 466 kts 59°
2026-05-09 05:16 56.91625 -94.12411 38708 ft 466 kts 59°
2026-05-09 05:17 56.94636 -94.01908 38715 ft 465 kts 59°
2026-05-09 05:17 56.97630 -93.91419 38699 ft 465 kts 59°
2026-05-09 05:18 57.00603 -93.80956 38699 ft 466 kts 59°
2026-05-09 05:18 57.03585 -93.70414 38690 ft 465 kts 60°
2026-05-09 05:19 57.06553 -93.59871 38688 ft 465 kts 60°
2026-05-09 05:19 57.09510 -93.49320 38684 ft 464 kts 60°
2026-05-09 05:20 57.12432 -93.38846 38674 ft 463 kts 60°
2026-05-09 05:20 57.15369 -93.28270 38663 ft 463 kts 60°
2026-05-09 05:21 57.18290 -93.17705 38668 ft 464 kts 60°
2026-05-09 05:21 57.21206 -93.07106 38657 ft 464 kts 60°
2026-05-09 05:22 57.24096 -92.96556 38664 ft 464 kts 60°
2026-05-09 05:22 57.26996 -92.85917 38651 ft 464 kts 60°
2026-05-09 05:23 57.29884 -92.75273 38642 ft 464 kts 61°
2026-05-09 05:23 57.32766 -92.64602 38641 ft 464 kts 61°
2026-05-09 05:24 57.35621 -92.53980 38625 ft 464 kts 61°
2026-05-09 05:24 57.38483 -92.43282 38626 ft 463 kts 61°
2026-05-09 05:25 57.41328 -92.32598 38623 ft 463 kts 62°
2026-05-09 05:25 57.45568 -92.16580 38617 ft 463 kts 62°
2026-05-09 05:26 57.48397 -92.05830 38607 ft 463 kts 62°
2026-05-09 05:26 57.51216 -91.95064 38606 ft 463 kts 62°
2026-05-09 05:27 57.54022 -91.84296 38600 ft 463 kts 62°
2026-05-09 05:27 57.56822 -91.73501 38606 ft 463 kts 62°
2026-05-09 05:28 57.59594 -91.62761 38587 ft 463 kts 62°
2026-05-09 05:28 57.62369 -91.51959 38588 ft 463 kts 62°
2026-05-09 05:29 57.65141 -91.41115 38577 ft 463 kts 62°
2026-05-09 05:29 57.67899 -91.30273 38583 ft 462 kts 63°
2026-05-09 05:30 57.70629 -91.19493 38588 ft 462 kts 63°
2026-05-09 05:30 57.73362 -91.08642 38577 ft 462 kts 63°
2026-05-09 05:31 57.76096 -90.97751 38574 ft 462 kts 63°
2026-05-09 05:31 57.78822 -90.86840 38560 ft 462 kts 63°
2026-05-09 05:32 57.81518 -90.76000 38561 ft 462 kts 63°
2026-05-09 05:32 57.84221 -90.65082 38552 ft 462 kts 63°
2026-05-09 05:33 57.86919 -90.54132 38552 ft 462 kts 63°
2026-05-09 05:33 57.89592 -90.43232 38553 ft 462 kts 64°
2026-05-09 05:34 57.92273 -90.32249 38550 ft 462 kts 64°
2026-05-09 05:34 57.94938 -90.21275 38544 ft 462 kts 64°
2026-05-09 05:35 57.97598 -90.10274 38545 ft 462 kts 64°
2026-05-09 05:35 58.00409 -89.99421 38534 ft 459 kts 53°
2026-05-09 05:36 58.04384 -89.90129 38528 ft 459 kts 50°
2026-05-09 05:36 58.08378 -89.80745 38540 ft 459 kts 50°
2026-05-09 05:37 58.12381 -89.71328 38539 ft 459 kts 50°
2026-05-09 05:37 58.16351 -89.61957 38540 ft 459 kts 50°
2026-05-09 05:38 58.20339 -89.52503 38537 ft 459 kts 50°
2026-05-09 05:38 58.24314 -89.43043 38533 ft 459 kts 50°
2026-05-09 05:39 58.28287 -89.33551 38531 ft 459 kts 50°
2026-05-09 05:39 58.32249 -89.24045 38534 ft 459 kts 51°
2026-05-09 05:40 58.36182 -89.14574 38538 ft 459 kts 51°
2026-05-09 05:40 58.40125 -89.05037 38534 ft 459 kts 51°
2026-05-09 05:41 58.44068 -88.95462 38531 ft 459 kts 51°
2026-05-09 05:41 58.48003 -88.85869 38527 ft 459 kts 51°
2026-05-09 05:42 58.51901 -88.76328 38531 ft 458 kts 51°
2026-05-09 05:42 58.55815 -88.66708 38534 ft 459 kts 51°
2026-05-09 05:43 58.59732 -88.57042 38532 ft 459 kts 51°
2026-05-09 05:43 58.63641 -88.47355 38529 ft 459 kts 51°
2026-05-09 05:44 58.67519 -88.37706 38528 ft 459 kts 51°
2026-05-09 05:44 58.71406 -88.27995 38531 ft 459 kts 51°
2026-05-09 05:45 58.75292 -88.18248 38531 ft 459 kts 51°
2026-05-09 05:45 58.79172 -88.08472 38541 ft 459 kts 52°
2026-05-09 05:46 58.83021 -87.98738 38535 ft 460 kts 52°
2026-05-09 05:46 58.86883 -87.88927 38532 ft 460 kts 52°
2026-05-09 05:47 58.90747 -87.79073 38531 ft 460 kts 52°
2026-05-09 05:47 58.94601 -87.69202 38533 ft 460 kts 52°
2026-05-09 05:48 58.98423 -87.59371 38532 ft 460 kts 52°
2026-05-09 05:48 59.02254 -87.49476 38528 ft 459 kts 52°
2026-05-09 05:49 59.06084 -87.39544 38543 ft 459 kts 52°
2026-05-09 05:49 59.09908 -87.29584 38538 ft 459 kts 52°
2026-05-09 05:50 59.13696 -87.19676 38540 ft 460 kts 52°
2026-05-09 05:50 59.17498 -87.09689 38540 ft 460 kts 53°
2026-05-09 05:51 59.21300 -86.99661 38538 ft 460 kts 53°
2026-05-09 05:51 59.25096 -86.89606 38545 ft 460 kts 53°
2026-05-09 05:52 59.28849 -86.79619 38541 ft 459 kts 53°
2026-05-09 05:52 59.32626 -86.69530 38549 ft 460 kts 53°
2026-05-09 05:53 59.36397 -86.59412 38555 ft 460 kts 53°
2026-05-09 05:53 59.40158 -86.49275 38555 ft 460 kts 53°
2026-05-09 05:54 59.43906 -86.39131 38557 ft 460 kts 53°
2026-05-09 05:54 59.47631 -86.29008 38562 ft 460 kts 53°
2026-05-09 05:55 59.51370 -86.18799 38560 ft 460 kts 53°
2026-05-09 05:55 59.55104 -86.08560 38576 ft 460 kts 54°
2026-05-09 05:56 59.58813 -85.98347 38570 ft 458 kts 54°
2026-05-09 05:56 59.62492 -85.88173 38570 ft 459 kts 54°
2026-05-09 05:57 59.66192 -85.77895 38582 ft 458 kts 54°
2026-05-09 05:57 59.69882 -85.67601 38583 ft 459 kts 54°
2026-05-09 05:58 59.73555 -85.57306 38582 ft 458 kts 54°
2026-05-09 05:58 59.77205 -85.47033 38590 ft 459 kts 54°
2026-05-09 05:59 59.80873 -85.36662 38584 ft 459 kts 55°
2026-05-09 05:59 59.84533 -85.26272 38593 ft 459 kts 55°
2026-05-09 06:00 59.88183 -85.15860 38599 ft 459 kts 55°
2026-05-09 06:00 59.91804 -85.05487 38600 ft 459 kts 55°
2026-05-09 06:01 59.95442 -84.95017 38607 ft 459 kts 55°
2026-05-09 06:01 59.99074 -84.84520 38610 ft 459 kts 55°
2026-05-09 06:02 60.02688 -84.74025 38608 ft 459 kts 56°
2026-05-09 06:02 60.06280 -84.63550 38617 ft 460 kts 56°
2026-05-09 06:03 60.09895 -84.52958 38615 ft 460 kts 56°
2026-05-09 06:03 60.13499 -84.42352 38616 ft 460 kts 56°
2026-05-09 06:04 60.17089 -84.31736 38619 ft 460 kts 56°
2026-05-09 06:04 60.20654 -84.21147 38617 ft 460 kts 56°
2026-05-09 06:05 60.24231 -84.10475 38626 ft 460 kts 56°
2026-05-09 06:05 60.27803 -83.99770 38630 ft 460 kts 56°
2026-05-09 06:06 60.31360 -83.89058 38631 ft 461 kts 57°
2026-05-09 06:06 60.34892 -83.78375 38629 ft 460 kts 57°
2026-05-09 06:07 60.38432 -83.67616 38631 ft 460 kts 57°
2026-05-09 06:07 60.41966 -83.56828 38633 ft 460 kts 57°
2026-05-09 06:08 60.45483 -83.46038 38637 ft 460 kts 57°
2026-05-09 06:08 60.48974 -83.35281 38641 ft 460 kts 57°
2026-05-09 06:09 60.52479 -83.24429 38643 ft 460 kts 57°
2026-05-09 06:09 60.55978 -83.13546 38644 ft 460 kts 57°
2026-05-09 06:10 60.59462 -83.02659 38642 ft 460 kts 58°
2026-05-09 06:10 60.62939 -82.91743 38646 ft 460 kts 58°
2026-05-09 06:11 60.66384 -82.80875 38646 ft 460 kts 58°
2026-05-09 06:11 60.69844 -82.69906 38649 ft 460 kts 58°
2026-05-09 06:12 60.73288 -82.58941 38647 ft 459 kts 58°
2026-05-09 06:12 60.76728 -82.47931 38647 ft 459 kts 58°
2026-05-09 06:13 60.80136 -82.36974 38649 ft 459 kts 58°
2026-05-09 06:13 60.83558 -82.25921 38643 ft 459 kts 58°
2026-05-09 06:14 60.86961 -82.14874 38652 ft 459 kts 58°
2026-05-09 06:14 60.90362 -82.03781 38655 ft 459 kts 58°
2026-05-09 06:15 60.93731 -81.92740 38655 ft 459 kts 58°
2026-05-09 06:15 60.97114 -81.81601 38658 ft 459 kts 59°
2026-05-09 06:16 61.00480 -81.70461 38658 ft 459 kts 59°
2026-05-09 06:16 61.03845 -81.59271 38659 ft 459 kts 59°
2026-05-09 06:17 61.07203 -81.48052 38651 ft 459 kts 59°
2026-05-09 06:17 61.10517 -81.36922 38659 ft 458 kts 59°
2026-05-09 06:18 61.13849 -81.25682 38658 ft 458 kts 59°